SL-14 DEB, 45275

Orbit data source: Space-Track

SL-14 DEB, 45275 is space debris in LEO originally from a launch on Thu, 15 Aug 1991 UTC launched from the Plesetsk Missile And Space Complex (PKMTR). Debris objects in space refer to the collection of defunct objects orbiting the Earth. Examples of debris include non-operational satellites, rocket bodies, and fragments generated from explosions, collisions, or faulty payload assembly.

Loading next visibility...
Identifier
45275, 1991-056M
Orbit
LEO
Country
Flag of CISCIS
Related business
Manufacturer
Unknown
Mission
Spacecraft
Bus & Motor
Unknown
Mass
Unknown
Launch date (UTC)
1991-08-15 (34 years ago)
Launch vehicle
Unknown
Launch site
Plesetsk Missile And Space Complex (PKMTR)
Object type
Payload
Rocket body
Debris
Shape & HBR
Unknown shape, 0.2 m
Radar Cross Section
Small (<0.1 m²)

Expand to show TLE details & history
Last TLE update: 8 hours ago

TLE from 8 hours ago
0 SL-14 DEB
1 45275U 91056M   25290.93140205  .00000144  00000-0  31552-3 0  9994
2 45275  82.5820 303.1622 0028571 212.0078 147.9313 13.22315717273888
Epoch: 2025-10-17T22:21Z
TLE epoch observation values (Epoch: 2025-10-17T22:21:13.137Z)
Latitude
-0.00002°
Longitude
-58.81223°
Altitude
1,197.013 km
Speed
7.247 km/s
True Right ascension
20h 12m 38s
True Declination
0° 00' 00"
Sunlit
Object was in daylight at epoch
Visualization orbit readout
Latitude
Unknown
Longitude
Unknown
Altitude
Unknown
Speed
Unknown
Apparent Right ascension
Unknown
Apparent Declination
Unknown
Sunlit
N/A
Visualization observer readout
Local Sidereal Time
00:59:14
Azimuth
Unknown
Elevation
Unknown
Doppler factor
Unknown
Orbital elements
Apogee altitude
1,194.698 km
Perigee altitude
1,151.549 km
Semi-major axis
7,551.261 km
Eccentricity
0.00286
Inclination
82.582°
RAAN
303.1622°
Arg. of periapsis
212.0078°
True anomaly
148.1046°
Mean anomaly
147.9313°
Eccentric anomaly
148.018°
Mean motion
3.30761 °/min
Orbital period
108.84 mins
BSTAR
0.00031552
Loading maneuver chart data...
Computing Atmospheric mass density...
Loading historical data...
Loading historical data...
Loading historical data...
Loading historical data...
Loading historical data...
Loading historical data...
Loading historical data...

Documentation

Showing up to 5 results
|